Regional Weather Roundup
Issued by NWS Goodland, KS

Home | Current Version | Previous Version | Text Only | Print | Product List | Glossary Off
Versions: 1 2 3 4 5 6 7 8 9 10 11 12 13 14 15 16 17 18 19 20 21 22 23 24 25 26 27 28 29 30 31 32 33 34 35 36 37 38 39 40 41 42 43 44 45 46 47 48 49 50

863
ASUS43 KGLD 290259
RWRGLD

GOODLAND FORECAST AREA HOURLY WEATHER ROUNDUP
NATIONAL WEATHER SERVICE GOODLAND KS
900 PM MDT FRI APR 28 2017

...OFFICIAL OBSERVATIONS...

CITY           SKY/WX    TMP DP  RH WIND       PRES   REMARKS
GOODLAND KS    LGT SNOW  33  33 100 NE18      29.99R FOG
HILL CITY KS   CLOUDY    39  36  89 NE13      30.04R
IMPERIAL NEB   CLOUDY    36  32  85 NE16      30.07R
MCCOOK NEB     CLOUDY    38  34  85 NE14      30.06R
AKRON CO       CLOUDY    32  29  88 NE18G28   30.02R
BURLINGTON CO  NOT AVBL
LIMON CO       FLURRIES  30  30 100 NE22      29.94S WCI  17
$$

...UNOFFICIAL OBSERVATIONS...

CITY           SKY/WX    TMP DP  RH WIND       PRES   REMARKS
LENORA KS        N/A     37  32  82 MISG        N/A
NORTON KS      CLOUDY    37  32  81 NE10G23   30.03R
SHARON SPRINGS   N/A     35  33  93 NE17        N/A
TRENTON NEB      N/A     36  32  85 NE9         N/A
KIT CARSON CO    N/A     34  32  92 MISG        N/A
YUMA CO        CLOUDY    32  32 100 NE21      30.04R WCI  20
$$




USA.gov is the U.S. government's official web portal to all federal, state and local government web resources and services.